Location: Prague
(50.0830°N, 14.4670°E)
Time: 22:08:11
(UTC+02:00)

N. Korean satellite - Pass Details

Date: 01 October 2021
Orbit: 450 x 494 km, 97.3° (Epoch: 28 October)

Event Time Altitude Azimuth Distance (km) Brightness Sun altitude
Rises 05:48:01 0° 21° (NNE) 2,549 10.7 -12.7°
Reaches altitude 10° 05:50:15 10° 33° (NNE) 1,672 9.9 -12.3°
Maximum altitude 05:53:28 30° 96° (E) 905 8.8 -11.8°
Drops below altitude 10° 05:56:41 10° 159° (SSE) 1,679 9.5 -11.3°
Sets 05:58:56 0° 170° (S) 2,561 10.3 -11.0°
